Location: Atlantic Beach
(40.5890°N, 73.7290°W)
Time: 04:19:26
(UTC+00:00)

Cosmos 1825 - Pass Details

Date: 29 October 2020
Orbit: 502 x 508 km, 82.5° (Epoch: 23 November)

Event Time Altitude Azimuth Distance (km) Brightness Sun altitude
Rises 23:30:53 0° 355° (N) 2,619 5.8 -18.8°
Reaches altitude 10° 23:33:02 10° 359° (N) 1,728 4.8 -19.2°
Maximum altitude 23:36:48 64° 81° (E) 563 2.0 -19.9°
Enters shadow 23:36:53 64° 90° (E) 564 2.0 -20.0°
